Other Surface Observations
Issued by NWS Charleston, SC

Home | Current Version | Previous Version | Text Only | Print | Product List | Glossary On
Versions: 1 2 3 4 5 6 7 8 9 10 11 12 13 14 15 16 17 18 19 20 21 22 23 24 25 26 27 28 29 30 31 32 33 34 35 36 37 38 39 40 41 42 43 44 45 46 47 48 49 50
825
SXUS52 KCHS 241327
OSOCHS

MARINE OBSERVATIONS
NATIONAL WEATHER SERVICE CHARLESTON SC
900 AM EDT FRI MAR 24 2017

...DOWNTOWN CHARLESTON AND HARBOR...

CITY           SKY/WX    TMP DP  RH WIND       PRES   REMARKS
WATERFRONT PRK   N/A     55  53  93 NE6       30.47S

...LAKE MOULTRIE...

CITY           SKY/WX    TMP DP  RH WIND       PRES   REMARKS
PINOPOLIS        N/A     48  46  93 E5        30.41S

...LAKE AND SUPPLEMENTAL COASTAL OBSERVATIONS...

STATION/POSITION TIME  TEMP    WIND        PRES    WAVE   SWELL
                       AIR SEA DIR/SP/G            HT/PER HT/PER/DIR
                 (UTC) (F)     (DEG/KT/KT) (MB)    (FT/S) (FT/S/D)
FORT PULASKI     1300   60 60   50/  6/  8 1031.6
SAPELO ISLAND    1300   65      70/  6     1031.0
WINYAH BAY       1245   55      50/ 11     1033.0R
LAKE MURRAY      1220   48      90/  5/  7 1031.8F
ACE BASIN NERRS  1230   51     360/  3     1032.0S


...C-MAN AND BUOY OBSERVATIONS...

STATION/POSITION TIME  TEMP    WIND        PRES    WAVE   SWELL
                       AIR SEA DIR/SP/G            HT/PER HT/PER/DIR
                 (UTC) (F)     (DEG/KT/KT) (MB)    (FT/S) (FT/S/D)
BUOY 41004       1250   67 71   90/ 10/ 14 1031.3R   5/ 7   3/110/ 7
BUOY 41008       1250   64 62   80/  8/ 10 1030.3R   5/ 6   5/100/ 6
FOLLY BEACH CMAN 1300   58      30/  9/ 10 1032.5S
CAPERS NS BUOY   1308   59      50/ 10/ 14 1031.9R
FRIPP NS BUOY    1308   58 59   20/ 10/ 14 1031.3R
5E ST. MARYS GA  1300      63                N/A     5/ 8   2/ 90/11


STATION/POSITION TIME  TEMP    WIND        PRES    WAVE   SWELL
                       AIR SEA DIR/SP/G            HT/PER HT/PER/DIR
                 (UTC) (F)     (DEG/KT/KT) (MB)    (FT/S) (FT/S/D)
FRYING PAN BUOY  1310   65 71  120/  8/ 12 1032.8
BUOY 41025       1250   59 75  160/ 14/ 17 1034.1F   6/ 9   5/ 70/ 9
CAPE LOOKOUT NC  1300   52      40/  6/  7 1033.5R
BUOY 41002       1250   63 73   70/ 17/ 21 1033.0F   6/10   5/ 10/10
BUOY 41010       NOT AVBL
ST AUGUSTINE FL  1300   67 65   90/ 14/ 15 1030.1R

$$




USA.gov is the U.S. government's official web portal to all federal, state and local government web resources and services.